Time,TemperatureF,DewpointF,PressureIn,WindDirection,WindDirectionDegrees,WindSpeedMPH,WindSpeedGustMPH,Humidity,HourlyPrecipIn,Conditions,Clouds,dailyrainin,SoftwareType,DateUTC
2013-01-03 00:02:00,28.2,24.3,29.68,South,190,0.0,0.0,85,0.00,,---,0.00,VWS V14.01,2013-01-03 08:02:00,
2013-01-03 00:07:00,28.4,24.5,29.68,South,190,0.0,0.0,85,0.00,,---,0.00,VWS V14.01,2013-01-03 08:07:00,
2013-01-03 00:12:00,28.4,24.5,29.68,South,190,0.0,0.0,85,0.00,,---,0.00,VWS V14.01,2013-01-03 08:12:00,
2013-01-03 00:17:00,28.4,24.5,29.68,South,190,0.0,0.0,85,0.00,,---,0.00,VWS V14.01,2013-01-03 08:17:00,
2013-01-03 00:22:00,28.2,24.3,29.68,South,190,0.0,0.0,85,0.00,,---,0.00,VWS V14.01,2013-01-03 08:22:00,
2013-01-03 00:27:00,28.0,24.4,29.68,South,190,0.0,0.0,86,0.00,,---,0.00,VWS V14.01,2013-01-03 08:27:00,
2013-01-03 01:05:00,27.7,24.3,29.68,South,190,0.0,0.0,87,0.00,,---,0.00,VWS V14.01,2013-01-03 09:05:00,
2013-01-03 01:09:00,27.5,24.1,29.68,South,190,0.0,0.0,87,0.00,,---,0.00,VWS V14.01,2013-01-03 09:09:00,
2013-01-03 01:14:00,27.5,24.1,29.65,South,190,0.0,0.0,87,0.00,,---,0.00,VWS V14.01,2013-01-03 09:14:00,
2013-01-03 01:19:00,27.5,24.1,29.65,South,190,0.0,0.0,87,0.00,,---,0.00,VWS V14.01,2013-01-03 09:19:00,
2013-01-03 01:24:00,27.3,24.0,29.65,South,190,0.0,0.0,87,0.00,,---,0.00,VWS V14.01,2013-01-03 09:24:00,
2013-01-03 01:29:00,27.3,24.0,29.68,South,190,0.0,0.0,87,0.00,,---,0.00,VWS V14.01,2013-01-03 09:29:00,
2013-01-03 01:34:00,27.1,23.8,29.68,South,190,0.0,0.0,87,0.00,,---,0.00,VWS V14.01,2013-01-03 09:34:00,
2013-01-03 01:39:00,27.1,24.1,29.68,South,190,0.0,0.0,88,0.00,,---,0.00,VWS V14.01,2013-01-03 09:39:00,
2013-01-03 01:44:00,27.1,24.1,29.68,South,190,0.0,0.0,88,0.00,,---,0.00,VWS V14.01,2013-01-03 09:44:00,
2013-01-03 01:49:00,27.1,24.1,29.68,South,190,0.0,0.0,88,0.00,,---,0.00,VWS V14.01,2013-01-03 09:49:00,
2013-01-03 01:55:00,27.1,24.1,29.68,South,190,0.0,0.0,88,0.00,,---,0.00,VWS V14.01,2013-01-03 09:55:00,
2013-01-03 01:59:00,27.0,23.9,29.68,South,190,0.0,0.0,88,0.00,,---,0.00,VWS V14.01,2013-01-03 09:59:00,
2013-01-03 02:04:00,27.0,23.9,29.68,South,190,0.0,0.0,88,0.00,,---,0.00,VWS V14.01,2013-01-03 10:04:00,
2013-01-03 02:09:00,27.0,23.9,29.68,South,190,0.0,0.0,88,0.00,,---,0.00,VWS V14.01,2013-01-03 10:09:00,
2013-01-03 02:14:00,27.0,23.9,29.68,South,190,0.0,0.0,88,0.00,,---,0.00,VWS V14.01,2013-01-03 10:14:00,
2013-01-03 02:19:00,26.8,23.7,29.68,South,190,0.0,0.0,88,0.00,,---,0.00,VWS V14.01,2013-01-03 10:19:00,
2013-01-03 02:24:00,26.8,23.7,29.68,South,190,0.0,0.0,88,0.00,,---,0.00,VWS V14.01,2013-01-03 10:24:00,
2013-01-03 02:29:00,26.8,23.7,29.68,South,190,0.0,0.0,88,0.00,,---,0.00,VWS V14.01,2013-01-03 10:29:00,
2013-01-03 02:34:00,26.8,23.7,29.68,South,190,0.0,0.0,88,0.00,,---,0.00,VWS V14.01,2013-01-03 10:34:00,
2013-01-03 02:39:00,26.6,23.5,29.68,South,190,0.0,0.0,88,0.00,,---,0.00,VWS V14.01,2013-01-03 10:39:00,
2013-01-03 02:44:00,26.6,23.5,29.68,South,190,0.0,0.0,88,0.00,,---,0.00,VWS V14.01,2013-01-03 10:44:00,
2013-01-03 02:49:00,26.4,23.6,29.68,South,190,0.0,0.0,89,0.00,,---,0.00,VWS V14.01,2013-01-03 10:49:00,
2013-01-03 02:54:00,26.4,23.6,29.68,South,190,0.0,0.0,89,0.00,,---,0.00,VWS V14.01,2013-01-03 10:54:00,
2013-01-03 02:59:00,26.4,23.6,29.65,South,190,0.0,0.0,89,0.00,,---,0.00,VWS V14.01,2013-01-03 10:59:00,
2013-01-03 03:04:00,26.4,23.6,29.65,South,190,0.0,0.0,89,0.00,,---,0.00,VWS V14.01,2013-01-03 11:04:00,
2013-01-03 03:09:00,26.2,23.5,29.65,South,190,0.0,0.0,89,0.00,,---,0.00,VWS V14.01,2013-01-03 11:09:00,
2013-01-03 03:14:00,26.2,23.5,29.68,South,190,0.0,0.0,89,0.00,,---,0.00,VWS V14.01,2013-01-03 11:14:00,
2013-01-03 03:19:00,26.2,23.5,29.68,South,190,0.0,0.0,89,0.00,,---,0.00,VWS V14.01,2013-01-03 11:19:00,
2013-01-03 03:24:00,26.2,23.5,29.68,South,190,0.0,0.0,89,0.00,,---,0.00,VWS V14.01,2013-01-03 11:24:00,
2013-01-03 03:29:00,26.1,23.3,29.68,South,190,0.0,0.0,89,0.00,,---,0.00,VWS V14.01,2013-01-03 11:29:00,
2013-01-03 03:34:00,26.1,23.3,29.68,South,190,0.0,0.0,89,0.00,,---,0.00,VWS V14.01,2013-01-03 11:34:00,
2013-01-03 03:39:00,26.1,23.3,29.68,South,190,0.0,0.0,89,0.00,,---,0.00,VWS V14.01,2013-01-03 11:39:00,
2013-01-03 03:44:00,26.1,23.3,29.65,South,190,0.0,0.0,89,0.00,,---,0.00,VWS V14.01,2013-01-03 11:44:00,
2013-01-03 03:49:00,26.1,23.3,29.65,South,190,0.0,0.0,89,0.00,,---,0.00,VWS V14.01,2013-01-03 11:49:00,
2013-01-03 03:54:00,26.1,23.3,29.65,South,190,0.0,0.0,89,0.00,,---,0.00,VWS V14.01,2013-01-03 11:54:00,
2013-01-03 03:59:00,26.1,23.3,29.65,South,190,0.0,0.0,89,0.00,,---,0.00,VWS V14.01,2013-01-03 11:59:00,
2013-01-03 04:04:00,26.1,23.3,29.65,South,190,0.0,0.0,89,0.00,,---,0.00,VWS V14.01,2013-01-03 12:04:00,
2013-01-03 04:09:00,25.9,23.1,29.65,South,190,0.0,0.0,89,0.00,,---,0.00,VWS V14.01,2013-01-03 12:09:00,
2013-01-03 04:14:00,25.9,23.1,29.65,South,190,0.0,0.0,89,0.00,,---,0.00,VWS V14.01,2013-01-03 12:14:00,
2013-01-03 04:19:00,25.9,23.1,29.65,South,190,0.0,0.0,89,0.00,,---,0.00,VWS V14.01,2013-01-03 12:19:00,
2013-01-03 04:24:00,25.9,23.1,29.65,South,190,0.0,0.0,89,0.00,,---,0.00,VWS V14.01,2013-01-03 12:24:00,
2013-01-03 04:29:00,25.7,22.9,29.65,South,190,0.0,0.0,89,0.00,,---,0.00,VWS V14.01,2013-01-03 12:29:00,
2013-01-03 04:34:00,25.7,22.9,29.65,South,190,0.0,0.0,89,0.00,,---,0.00,VWS V14.01,2013-01-03 12:34:00,
2013-01-03 04:39:00,25.7,23.2,29.65,South,190,0.0,0.0,90,0.00,,---,0.00,VWS V14.01,2013-01-03 12:39:00,
2013-01-03 04:44:00,25.5,23.0,29.65,South,190,0.0,0.0,90,0.00,,---,0.00,VWS V14.01,2013-01-03 12:44:00,
2013-01-03 04:49:00,25.5,23.0,29.65,South,190,0.0,0.0,90,0.00,,---,0.00,VWS V14.01,2013-01-03 12:49:00,
2013-01-03 04:54:00,25.5,23.0,29.65,South,190,0.0,0.0,90,0.00,,---,0.00,VWS V14.01,2013-01-03 12:54:00,
2013-01-03 04:59:00,25.5,23.0,29.62,South,190,0.0,0.0,90,0.00,,---,0.00,VWS V14.01,2013-01-03 12:59:00,
2013-01-03 05:04:00,25.5,23.0,29.62,South,190,0.0,0.0,90,0.00,,---,0.00,VWS V14.01,2013-01-03 13:04:00,
2013-01-03 05:09:00,25.5,23.0,29.62,South,190,0.0,0.0,90,0.00,,---,0.00,VWS V14.01,2013-01-03 13:09:00,
2013-01-03 05:14:00,25.5,23.0,29.62,South,191,0.0,0.0,90,0.00,,---,0.00,VWS V14.01,2013-01-03 13:14:00,
2013-01-03 05:19:00,25.3,22.8,29.62,South,190,0.0,0.0,90,0.00,,---,0.00,VWS V14.01,2013-01-03 13:19:00,
2013-01-03 05:24:00,25.3,22.8,29.62,South,190,0.0,0.0,90,0.00,,---,0.00,VWS V14.01,2013-01-03 13:24:00,
2013-01-03 05:29:00,25.3,22.8,29.62,South,190,0.0,0.0,90,0.00,,---,0.00,VWS V14.01,2013-01-03 13:29:00,
2013-01-03 05:34:00,25.3,22.8,29.62,South,190,0.0,0.0,90,0.00,,---,0.00,VWS V14.01,2013-01-03 13:34:00,
2013-01-03 05:39:00,25.3,22.8,29.62,South,190,0.0,0.0,90,0.00,,---,0.00,VWS V14.01,2013-01-03 13:39:00,
2013-01-03 05:44:00,25.3,22.8,29.62,South,191,0.0,0.0,90,0.00,,---,0.00,VWS V14.01,2013-01-03 13:44:00,
2013-01-03 05:49:00,25.3,22.8,29.62,South,190,0.0,0.0,90,0.00,,---,0.00,VWS V14.01,2013-01-03 13:49:00,
2013-01-03 05:54:00,25.2,22.6,29.62,South,190,0.0,0.0,90,0.00,,---,0.00,VWS V14.01,2013-01-03 13:54:00,
2013-01-03 05:59:00,25.2,22.6,29.62,South,190,0.0,0.0,90,0.00,,---,0.00,VWS V14.01,2013-01-03 13:59:00,
2013-01-03 06:04:00,25.2,22.6,29.62,South,190,0.0,0.0,90,0.00,,---,0.00,VWS V14.01,2013-01-03 14:04:00,
2013-01-03 06:09:00,25.2,22.6,29.62,South,190,0.0,0.0,90,0.00,,---,0.00,VWS V14.01,2013-01-03 14:09:00,
2013-01-03 06:14:00,25.0,22.5,29.62,South,190,0.0,0.0,90,0.00,,---,0.00,VWS V14.01,2013-01-03 14:14:00,
2013-01-03 06:19:00,25.0,22.5,29.62,South,190,0.0,0.0,90,0.00,,---,0.00,VWS V14.01,2013-01-03 14:19:00,
2013-01-03 06:24:00,25.0,22.5,29.62,South,190,0.0,0.0,90,0.00,,---,0.00,VWS V14.01,2013-01-03 14:24:00,
2013-01-03 06:29:00,25.0,22.5,29.62,South,190,0.0,0.0,90,0.00,,---,0.00,VWS V14.01,2013-01-03 14:29:00,
2013-01-03 06:34:00,24.8,22.3,29.62,South,190,0.0,0.0,90,0.00,,---,0.00,VWS V14.01,2013-01-03 14:34:00,
2013-01-03 06:39:00,24.8,22.3,29.62,South,190,0.0,0.0,90,0.00,,---,0.00,VWS V14.01,2013-01-03 14:39:00,
2013-01-03 06:44:00,24.8,22.3,29.62,South,190,0.0,0.0,90,0.00,,---,0.00,VWS V14.01,2013-01-03 14:44:00,
2013-01-03 06:49:00,24.8,22.3,29.62,South,190,0.0,0.0,90,0.00,,---,0.00,VWS V14.01,2013-01-03 14:49:00,
2013-01-03 06:54:00,24.8,22.3,29.62,South,190,0.0,0.0,90,0.00,,---,0.00,VWS V14.01,2013-01-03 14:54:00,
2013-01-03 06:59:00,24.6,22.1,29.62,South,190,0.0,0.0,90,0.00,,---,0.00,VWS V14.01,2013-01-03 14:59:00,
2013-01-03 07:04:00,24.6,22.4,29.62,South,190,0.0,0.0,91,0.00,,---,0.00,VWS V14.01,2013-01-03 15:04:00,
2013-01-03 07:09:00,24.6,22.4,29.62,South,190,0.0,0.0,91,0.00,,---,0.00,VWS V14.01,2013-01-03 15:09:00,
2013-01-03 07:14:00,24.6,22.4,29.62,South,190,0.0,0.0,91,0.00,,---,0.00,VWS V14.01,2013-01-03 15:14:00,
2013-01-03 07:19:00,24.6,22.4,29.62,South,191,0.0,0.0,91,0.00,,---,0.00,VWS V14.01,2013-01-03 15:19:00,
2013-01-03 07:24:00,24.4,22.2,29.62,South,190,0.0,0.0,91,0.00,,---,0.00,VWS V14.01,2013-01-03 15:24:00,
2013-01-03 07:29:00,24.4,22.2,29.62,South,190,0.0,0.0,91,0.00,,---,0.00,VWS V14.01,2013-01-03 15:29:00,
2013-01-03 07:34:00,24.4,22.2,29.62,South,190,0.0,0.0,91,0.00,,---,0.00,VWS V14.01,2013-01-03 15:34:00,
2013-01-03 07:39:00,24.4,22.2,29.62,South,190,0.0,0.0,91,0.00,,---,0.00,VWS V14.01,2013-01-03 15:39:00,
2013-01-03 07:44:00,24.4,22.2,29.62,South,190,0.0,0.0,91,0.00,,---,0.00,VWS V14.01,2013-01-03 15:44:00,
2013-01-03 07:49:00,24.4,22.2,29.62,South,190,0.0,0.0,91,0.00,,---,0.00,VWS V14.01,2013-01-03 15:49:00,
2013-01-03 07:54:00,24.4,22.2,29.62,South,190,0.0,0.0,91,0.00,,---,0.00,VWS V14.01,2013-01-03 15:54:00,
2013-01-03 07:59:00,24.4,22.2,29.62,South,190,0.0,0.0,91,0.00,,---,0.00,VWS V14.01,2013-01-03 15:59:00,
2013-01-03 08:04:00,24.4,22.2,29.62,South,190,0.0,0.0,91,0.00,,---,0.00,VWS V14.01,2013-01-03 16:04:00,
2013-01-03 08:09:00,24.4,22.2,29.62,South,190,0.0,0.0,91,0.00,,---,0.00,VWS V14.01,2013-01-03 16:09:00,
2013-01-03 08:14:00,24.4,22.2,29.62,South,190,0.0,0.0,91,0.00,,---,0.00,VWS V14.01,2013-01-03 16:14:00,
2013-01-03 08:19:00,24.4,22.2,29.62,South,190,0.0,0.0,91,0.00,,---,0.00,VWS V14.01,2013-01-03 16:19:00,
2013-01-03 08:24:00,24.4,22.2,29.62,South,190,0.0,0.0,91,0.00,,---,0.00,VWS V14.01,2013-01-03 16:24:00,
2013-01-03 08:29:00,24.4,22.2,29.62,South,190,0.0,0.0,91,0.00,,---,0.00,VWS V14.01,2013-01-03 16:29:00,
2013-01-03 08:34:00,24.4,22.2,29.62,South,190,0.0,0.0,91,0.00,,---,0.00,VWS V14.01,2013-01-03 16:34:00,
2013-01-03 08:39:00,24.6,22.4,29.62,South,190,0.0,0.0,91,0.00,,---,0.00,VWS V14.01,2013-01-03 16:39:00,
2013-01-03 08:44:00,24.6,22.4,29.62,South,190,0.0,0.0,91,0.00,,---,0.00,VWS V14.01,2013-01-03 16:44:00,
2013-01-03 08:49:00,24.8,22.5,29.62,South,190,0.0,0.0,91,0.00,,---,0.00,VWS V14.01,2013-01-03 16:49:00,
2013-01-03 08:54:00,24.8,22.5,29.62,WSW,245,2.2,2.2,91,0.00,,---,0.00,VWS V14.01,2013-01-03 16:54:00,
2013-01-03 08:59:00,25.2,22.9,29.62,West,273,0.0,0.0,91,0.00,,---,0.00,VWS V14.01,2013-01-03 16:59:00,
2013-01-03 09:04:00,25.3,23.1,29.62,West,273,0.0,0.0,91,0.00,,---,0.00,VWS V14.01,2013-01-03 17:04:00,
2013-01-03 09:09:00,25.5,23.3,29.62,West,273,0.0,0.0,91,0.00,,---,0.00,VWS V14.01,2013-01-03 17:09:00,
2013-01-03 09:14:00,25.7,23.7,29.62,West,277,0.0,0.0,92,0.00,,---,0.00,VWS V14.01,2013-01-03 17:14:00,
2013-01-03 09:19:00,26.1,24.1,29.62,West,277,0.0,0.0,92,0.00,,---,0.00,VWS V14.01,2013-01-03 17:19:00,
2013-01-03 09:24:00,26.1,24.1,29.62,West,276,0.0,0.0,92,0.00,,---,0.00,VWS V14.01,2013-01-03 17:24:00,
2013-01-03 09:29:00,26.2,24.2,29.62,West,276,0.0,0.0,92,0.00,,---,0.00,VWS V14.01,2013-01-03 17:29:00,
2013-01-03 09:34:00,26.6,24.6,29.62,WSW,243,0.0,0.0,92,0.00,,---,0.00,VWS V14.01,2013-01-03 17:34:00,
2013-01-03 09:39:00,27.9,25.8,29.62,ESE,121,0.0,0.0,92,0.00,,---,0.00,VWS V14.01,2013-01-03 17:39:00,
2013-01-03 09:44:00,28.6,26.3,29.62,West,271,0.0,0.0,91,0.00,,---,0.00,VWS V14.01,2013-01-03 17:44:00,
2013-01-03 09:49:00,28.8,26.5,29.62,South,182,0.0,3.6,91,0.00,,---,0.00,VWS V14.01,2013-01-03 17:49:00,
2013-01-03 09:54:00,30.2,27.6,29.62,SSE,166,2.7,2.7,90,0.00,,---,0.00,VWS V14.01,2013-01-03 17:54:00,
2013-01-03 09:59:00,31.6,28.5,29.62,SSE,153,0.0,2.2,88,0.00,,---,0.00,VWS V14.01,2013-01-03 17:59:00,
2013-01-03 10:04:00,32.4,28.9,29.62,ESE,117,2.7,2.7,87,0.00,,---,0.00,VWS V14.01,2013-01-03 18:04:00,
2013-01-03 10:09:00,32.4,28.1,29.62,ENE,74,0.0,2.7,84,0.00,,---,0.00,VWS V14.01,2013-01-03 18:09:00,
2013-01-03 10:14:00,32.7,27.8,29.62,SW,223,3.1,3.1,82,0.00,,---,0.00,VWS V14.01,2013-01-03 18:14:00,
2013-01-03 10:19:00,33.6,28.1,29.62,WSW,245,0.0,0.0,80,0.00,,---,0.00,VWS V14.01,2013-01-03 18:19:00,
2013-01-03 10:24:00,34.0,27.9,29.62,WSW,245,0.0,0.0,78,0.00,,---,0.00,VWS V14.01,2013-01-03 18:24:00,
2013-01-03 10:29:00,34.9,28.4,29.62,WSW,242,2.2,3.6,77,0.00,,---,0.00,VWS V14.01,2013-01-03 18:29:00,
2013-01-03 10:34:00,35.4,28.3,29.62,SSW,203,4.0,4.0,75,0.00,,---,0.00,VWS V14.01,2013-01-03 18:34:00,
2013-01-03 10:39:00,36.3,28.2,29.62,SW,219,2.7,3.6,72,0.00,,---,0.00,VWS V14.01,2013-01-03 18:39:00,
2013-01-03 10:44:00,36.3,27.8,29.62,ESE,111,4.0,4.0,71,0.00,,---,0.00,VWS V14.01,2013-01-03 18:44:00,
2013-01-03 10:49:00,36.1,27.0,29.62,East,91,0.0,2.2,69,0.00,,---,0.00,VWS V14.01,2013-01-03 18:49:00,
2013-01-03 10:54:00,36.3,27.1,29.62,West,264,3.1,3.1,69,0.00,,---,0.00,VWS V14.01,2013-01-03 18:54:00,
2013-01-03 10:59:00,36.9,27.7,29.62,WSW,248,2.2,3.6,69,0.00,,---,0.00,VWS V14.01,2013-01-03 18:59:00,
2013-01-03 11:04:00,37.0,28.2,29.62,WSW,237,0.0,2.2,70,0.00,,---,0.00,VWS V14.01,2013-01-03 19:04:00,
2013-01-03 11:09:00,37.6,28.0,29.62,West,265,3.6,4.9,68,0.00,,---,0.00,VWS V14.01,2013-01-03 19:09:00,
2013-01-03 11:14:00,37.9,28.0,29.62,WSW,246,2.7,3.6,67,0.00,,---,0.00,VWS V14.01,2013-01-03 19:14:00,
2013-01-03 11:55:00,39.9,26.8,29.62,North,357,0.0,0.0,59,0.00,,---,0.00,VWS V14.01,2013-01-03 19:55:00,
2013-01-03 12:00:00,39.9,26.8,29.59,North,10,0.0,0.0,59,0.00,,---,0.00,VWS V14.01,2013-01-03 20:00:00,
2013-01-03 12:05:00,39.9,26.8,29.59,North,9,0.0,0.0,59,0.00,,---,0.00,VWS V14.01,2013-01-03 20:05:00,
2013-01-03 12:10:00,40.1,26.9,29.59,North,357,0.0,0.0,59,0.00,,---,0.00,VWS V14.01,2013-01-03 20:10:00,
2013-01-03 12:15:00,40.3,26.7,29.59,WSW,258,2.2,2.2,58,0.00,,---,0.00,VWS V14.01,2013-01-03 20:15:00,
2013-01-03 12:20:00,40.3,26.7,29.59,WSW,256,0.0,0.0,58,0.00,,---,0.00,VWS V14.01,2013-01-03 20:20:00,
2013-01-03 12:25:00,40.3,27.1,29.59,WSW,251,0.0,0.0,59,0.00,,---,0.00,VWS V14.01,2013-01-03 20:25:00,
2013-01-03 12:30:00,40.3,27.1,29.59,West,261,0.0,0.0,59,0.00,,---,0.00,VWS V14.01,2013-01-03 20:30:00,
2013-01-03 12:35:00,40.3,27.1,29.59,SW,236,2.7,3.6,59,0.00,,---,0.00,VWS V14.01,2013-01-03 20:35:00,
2013-01-03 12:40:00,40.5,26.9,29.59,WSW,237,0.0,0.0,58,0.00,,---,0.00,VWS V14.01,2013-01-03 20:40:00,
2013-01-03 12:45:00,40.5,26.4,29.59,WSW,237,0.0,0.0,57,0.00,,---,0.00,VWS V14.01,2013-01-03 20:45:00,
2013-01-03 12:50:00,40.6,26.6,29.59,WSW,237,0.0,0.0,57,0.00,,---,0.00,VWS V14.01,2013-01-03 20:50:00,
2013-01-03 12:55:00,40.8,26.8,29.59,WSW,237,0.0,0.0,57,0.00,,---,0.00,VWS V14.01,2013-01-03 20:55:00,
2013-01-03 13:00:00,40.6,26.6,29.59,West,260,0.0,0.0,57,0.00,,---,0.00,VWS V14.01,2013-01-03 21:00:00,
2013-01-03 13:05:00,41.2,27.1,29.59,NNW,329,0.0,0.0,57,0.00,,---,0.00,VWS V14.01,2013-01-03 21:05:00,
2013-01-03 13:10:00,41.5,27.5,29.59,North,0,0.0,0.0,57,0.00,,---,0.00,VWS V14.01,2013-01-03 21:10:00,
2013-01-03 13:15:00,41.7,27.6,29.59,North,0,0.0,0.0,57,0.00,,---,0.00,VWS V14.01,2013-01-03 21:15:00,
2013-01-03 13:20:00,42.1,27.5,29.59,SW,236,2.7,2.7,56,0.00,,---,0.00,VWS V14.01,2013-01-03 21:20:00,
2013-01-03 13:25:00,41.9,27.4,29.59,SW,236,0.0,0.0,56,0.00,,---,0.00,VWS V14.01,2013-01-03 21:25:00,
2013-01-03 13:30:00,42.1,27.5,29.59,SW,236,0.0,0.0,56,0.00,,---,0.00,VWS V14.01,2013-01-03 21:30:00,
2013-01-03 13:35:00,42.3,27.7,29.59,SW,236,0.0,0.0,56,0.00,,---,0.00,VWS V14.01,2013-01-03 21:35:00,
2013-01-03 13:40:00,42.4,27.9,29.59,SW,236,0.0,0.0,56,0.00,,---,0.00,VWS V14.01,2013-01-03 21:40:00,
2013-01-03 13:45:00,42.4,27.9,29.59,SW,222,0.0,0.0,56,0.00,,---,0.00,VWS V14.01,2013-01-03 21:45:00,
2013-01-03 13:50:00,42.8,27.8,29.59,WSW,239,0.0,0.0,55,0.00,,---,0.00,VWS V14.01,2013-01-03 21:50:00,
2013-01-03 13:55:00,42.8,28.2,29.59,WSW,247,0.0,0.0,56,0.00,,---,0.00,VWS V14.01,2013-01-03 21:55:00,
2013-01-03 14:00:00,42.3,28.1,29.59,ESE,109,0.0,2.2,57,0.00,,---,0.00,VWS V14.01,2013-01-03 22:00:00,
2013-01-03 14:05:00,41.7,27.6,29.59,East,87,0.0,0.0,57,0.00,,---,0.00,VWS V14.01,2013-01-03 22:05:00,
2013-01-03 14:10:00,41.2,27.5,29.59,East,87,0.0,0.0,58,0.00,,---,0.00,VWS V14.01,2013-01-03 22:10:00,
2013-01-03 14:15:00,41.5,27.5,29.59,SE,144,0.0,0.0,57,0.00,,---,0.00,VWS V14.01,2013-01-03 22:15:00,
2013-01-03 14:20:00,41.7,27.6,29.59,East,87,0.0,0.0,57,0.00,,---,0.00,VWS V14.01,2013-01-03 22:20:00,
2013-01-03 14:25:00,41.4,27.7,29.59,East,82,0.0,0.0,58,0.00,,---,0.00,VWS V14.01,2013-01-03 22:25:00,
2013-01-03 14:30:00,41.2,27.5,29.59,ESE,107,0.0,0.0,58,0.00,,---,0.00,VWS V14.01,2013-01-03 22:30:00,
2013-01-03 14:35:00,41.5,27.9,29.59,ESE,104,2.7,2.7,58,0.00,,---,0.00,VWS V14.01,2013-01-03 22:35:00,
2013-01-03 14:40:00,41.5,27.9,29.59,SE,127,0.0,0.0,58,0.00,,---,0.00,VWS V14.01,2013-01-03 22:40:00,
2013-01-03 14:45:00,41.4,27.3,29.59,ENE,62,4.9,4.9,57,0.00,,---,0.00,VWS V14.01,2013-01-03 22:45:00,
2013-01-03 14:50:00,41.9,26.9,29.59,SE,134,3.6,3.6,55,0.00,,---,0.00,VWS V14.01,2013-01-03 22:50:00,
2013-01-03 14:55:00,41.5,26.6,29.59,ESE,105,0.0,4.5,55,0.00,,---,0.00,VWS V14.01,2013-01-03 22:55:00,
2013-01-03 15:00:00,41.5,26.1,29.62,ESE,112,3.1,3.1,54,0.00,,---,0.00,VWS V14.01,2013-01-03 23:00:00,
2013-01-03 15:05:00,41.0,25.6,29.62,ESE,103,0.0,0.0,54,0.00,,---,0.00,VWS V14.01,2013-01-03 23:05:00,
2013-01-03 15:10:00,40.5,25.6,29.62,SE,133,0.0,0.0,55,0.00,,---,0.00,VWS V14.01,2013-01-03 23:10:00,
2013-01-03 15:15:00,40.1,25.2,29.62,SE,133,0.0,0.0,55,0.00,,---,0.00,VWS V14.01,2013-01-03 23:15:00,
2013-01-03 15:20:00,39.9,25.5,29.62,SW,225,0.0,0.0,56,0.00,,---,0.00,VWS V14.01,2013-01-03 23:20:00,
2013-01-03 15:25:00,39.2,25.3,29.62,SW,227,0.0,2.7,57,0.00,,---,0.00,VWS V14.01,2013-01-03 23:25:00,
2013-01-03 15:30:00,38.7,25.2,29.65,WSW,257,2.7,4.0,58,0.00,,---,0.00,VWS V14.01,2013-01-03 23:30:00,
2013-01-03 15:35:00,38.3,24.8,29.65,West,268,0.0,2.2,58,0.00,,---,0.00,VWS V14.01,2013-01-03 23:35:00,
2013-01-03 15:40:00,38.1,25.1,29.65,West,268,0.0,0.0,59,0.00,,---,0.00,VWS V14.01,2013-01-03 23:40:00,
2013-01-03 15:45:00,37.8,24.7,29.65,West,268,0.0,0.0,59,0.00,,---,0.00,VWS V14.01,2013-01-03 23:45:00,
2013-01-03 15:50:00,37.4,24.8,29.65,West,268,0.0,0.0,60,0.00,,---,0.00,VWS V14.01,2013-01-03 23:50:00,
2013-01-03 15:55:00,37.2,25.0,29.65,West,268,0.0,0.0,61,0.00,,---,0.00,VWS V14.01,2013-01-03 23:55:00,
2013-01-03 16:00:00,37.0,25.2,29.65,West,268,0.0,0.0,62,0.00,,---,0.00,VWS V14.01,2013-01-04 00:00:00,
2013-01-03 16:05:00,36.9,25.5,29.65,West,268,0.0,0.0,63,0.00,,---,0.00,VWS V14.01,2013-01-04 00:05:00,
2013-01-03 16:10:00,36.7,25.7,29.65,West,268,0.0,0.0,64,0.00,,---,0.00,VWS V14.01,2013-01-04 00:10:00,
2013-01-03 16:15:00,36.5,25.9,29.65,East,87,0.0,0.0,65,0.00,,---,0.00,VWS V14.01,2013-01-04 00:15:00,
2013-01-03 16:20:00,36.5,25.9,29.65,West,273,0.0,2.2,65,0.00,,---,0.00,VWS V14.01,2013-01-04 00:20:00,
2013-01-03 16:25:00,36.7,25.7,29.65,East,81,2.2,5.8,64,0.00,,---,0.00,VWS V14.01,2013-01-04 00:25:00,
2013-01-03 16:30:00,36.9,25.1,29.65,NE,53,0.0,2.2,62,0.00,,---,0.00,VWS V14.01,2013-01-04 00:30:00,
2013-01-03 16:35:00,37.0,24.9,29.65,SW,231,0.0,0.0,61,0.00,,---,0.00,VWS V14.01,2013-01-04 00:35:00,
2013-01-03 16:40:00,36.9,24.3,29.65,South,180,0.0,0.0,60,0.00,,---,0.00,VWS V14.01,2013-01-04 00:40:00,
2013-01-03 16:45:00,36.7,24.1,29.65,ENE,66,0.0,0.0,60,0.00,,---,0.00,VWS V14.01,2013-01-04 00:45:00,
2013-01-03 16:50:00,36.9,24.3,29.65,SE,127,2.7,2.7,60,0.00,,---,0.00,VWS V14.01,2013-01-04 00:50:00,
2013-01-03 16:55:00,37.0,23.6,29.65,ENE,76,2.2,3.1,58,0.00,,---,0.00,VWS V14.01,2013-01-04 00:55:00,
2013-01-03 17:00:00,37.6,23.7,29.65,ENE,69,2.2,2.7,57,0.00,,---,0.00,VWS V14.01,2013-01-04 01:00:00,
2013-01-03 17:05:00,37.2,23.4,29.65,NE,44,4.0,5.8,57,0.00,,---,0.00,VWS V14.01,2013-01-04 01:05:00,
2013-01-03 17:10:00,37.2,23.0,29.65,SE,137,0.0,3.6,56,0.00,,---,0.00,VWS V14.01,2013-01-04 01:10:00,
2013-01-03 17:15:00,37.4,23.1,29.65,East,97,2.7,2.7,56,0.00,,---,0.00,VWS V14.01,2013-01-04 01:15:00,
2013-01-03 17:20:00,37.8,23.1,29.65,SSW,194,3.1,3.6,55,0.00,,---,0.00,VWS V14.01,2013-01-04 01:20:00,
2013-01-03 17:25:00,37.8,23.1,29.65,East,85,0.0,0.0,55,0.00,,---,0.00,VWS V14.01,2013-01-04 01:25:00,
2013-01-03 17:30:00,37.4,22.7,29.65,SE,134,0.0,3.1,55,0.00,,---,0.00,VWS V14.01,2013-01-04 01:30:00,
2013-01-03 17:35:00,37.6,22.9,29.65,NE,39,0.0,3.6,55,0.00,,---,0.00,VWS V14.01,2013-01-04 01:35:00,
2013-01-03 17:40:00,37.8,22.6,29.65,NE,45,0.0,0.0,54,0.00,,---,0.00,VWS V14.01,2013-01-04 01:40:00,
2013-01-03 17:45:00,37.6,22.5,29.65,ENE,64,3.6,4.9,54,0.00,,---,0.00,VWS V14.01,2013-01-04 01:45:00,
2013-01-03 17:50:00,37.6,22.5,29.65,East,90,2.7,2.7,54,0.00,,---,0.00,VWS V14.01,2013-01-04 01:50:00,
2013-01-03 17:55:00,37.6,22.5,29.65,East,92,2.7,3.6,54,0.00,,---,0.00,VWS V14.01,2013-01-04 01:55:00,
2013-01-03 18:00:00,37.6,22.5,29.65,SSW,206,2.7,3.6,54,0.00,,---,0.00,VWS V14.01,2013-01-04 02:00:00,
2013-01-03 18:05:00,37.6,22.5,29.65,SSW,192,0.0,2.7,54,0.00,,---,0.00,VWS V14.01,2013-01-04 02:05:00,
2013-01-03 18:10:00,37.4,21.9,29.65,East,87,3.1,3.1,53,0.00,,---,0.00,VWS V14.01,2013-01-04 02:10:00,
2013-01-03 18:15:00,37.6,22.0,29.65,WSW,243,3.6,3.6,53,0.00,,---,0.00,VWS V14.01,2013-01-04 02:15:00,
2013-01-03 18:20:00,37.6,22.0,29.65,NNE,33,2.7,3.1,53,0.00,,---,0.00,VWS V14.01,2013-01-04 02:20:00,
2013-01-03 18:25:00,38.3,22.7,29.65,SSE,147,2.2,2.7,53,0.00,,---,0.00,VWS V14.01,2013-01-04 02:25:00,
2013-01-03 18:30:00,38.3,22.7,29.68,East,86,4.0,4.0,53,0.00,,---,0.00,VWS V14.01,2013-01-04 02:30:00,
2013-01-03 18:35:00,38.3,22.7,29.68,NNE,23,0.0,0.0,53,0.00,,---,0.00,VWS V14.01,2013-01-04 02:35:00,
2013-01-03 18:40:00,38.1,22.5,29.68,WSW,247,5.4,5.4,53,0.00,,---,0.00,VWS V14.01,2013-01-04 02:40:00,
2013-01-03 18:45:00,37.9,22.4,29.68,West,263,2.7,2.7,53,0.00,,---,0.00,VWS V14.01,2013-01-04 02:45:00,
2013-01-03 18:50:00,37.8,22.6,29.68,NNE,32,0.0,0.0,54,0.00,,---,0.00,VWS V14.01,2013-01-04 02:50:00,
2013-01-03 18:55:00,37.6,23.3,29.68,NE,43,0.0,0.0,56,0.00,,---,0.00,VWS V14.01,2013-01-04 02:55:00,
2013-01-03 19:00:00,37.0,24.9,29.68,NE,45,0.0,0.0,61,0.00,,---,0.00,VWS V14.01,2013-01-04 03:00:00,
2013-01-03 19:05:00,36.7,26.4,29.68,NE,43,0.0,0.0,66,0.00,,---,0.00,VWS V14.01,2013-01-04 03:05:00,
2013-01-03 19:10:00,36.3,27.1,29.68,ENE,71,0.0,0.0,69,0.00,,---,0.00,VWS V14.01,2013-01-04 03:10:00,
2013-01-03 19:15:00,36.3,27.8,29.68,ENE,64,2.7,2.7,71,0.00,,---,0.00,VWS V14.01,2013-01-04 03:15:00,
2013-01-03 19:20:00,36.1,28.7,29.68,ENE,66,2.7,2.7,74,0.04,,---,0.04,VWS V14.01,2013-01-04 03:20:00,
2013-01-03 19:25:00,36.0,28.8,29.68,ENE,64,0.0,0.0,75,0.04,,---,0.04,VWS V14.01,2013-01-04 03:25:00,
2013-01-03 19:30:00,35.8,29.0,29.68,ENE,63,0.0,0.0,76,0.04,,---,0.04,VWS V14.01,2013-01-04 03:30:00,
2013-01-03 19:35:00,35.8,29.3,29.68,ESE,115,0.0,0.0,77,0.04,,---,0.04,VWS V14.01,2013-01-04 03:35:00,
2013-01-03 19:40:00,35.6,29.4,29.68,ESE,117,0.0,0.0,78,0.04,,---,0.04,VWS V14.01,2013-01-04 03:40:00,
2013-01-03 19:45:00,35.6,29.4,29.68,West,270,0.0,0.0,78,0.04,,---,0.04,VWS V14.01,2013-01-04 03:45:00,
2013-01-03 19:50:00,35.6,29.7,29.68,East,89,0.0,3.1,79,0.04,,---,0.04,VWS V14.01,2013-01-04 03:50:00,
2013-01-03 19:55:00,35.6,29.7,29.68,ENE,68,3.1,3.6,79,0.04,,---,0.04,VWS V14.01,2013-01-04 03:55:00,
2013-01-03 20:00:00,35.6,29.7,29.68,SE,130,2.7,3.1,79,0.04,,---,0.04,VWS V14.01,2013-01-04 04:00:00,
2013-01-03 20:05:00,35.6,30.0,29.68,ENE,71,4.9,4.9,80,0.04,,---,0.04,VWS V14.01,2013-01-04 04:05:00,
2013-01-03 20:10:00,35.6,30.0,29.68,ENE,78,2.2,3.6,80,0.04,,---,0.04,VWS V14.01,2013-01-04 04:10:00,
2013-01-03 20:15:00,35.6,30.4,29.68,ENE,69,3.6,3.6,81,0.04,,---,0.04,VWS V14.01,2013-01-04 04:15:00,
2013-01-03 20:20:00,35.6,30.7,29.68,East,87,3.6,3.6,82,0.04,,---,0.04,VWS V14.01,2013-01-04 04:20:00,
2013-01-03 20:25:00,35.6,30.7,29.68,ENE,68,6.3,6.3,82,0.00,,---,0.04,VWS V14.01,2013-01-04 04:25:00,
2013-01-03 20:30:00,35.4,30.8,29.68,East,96,3.1,3.6,83,0.00,,---,0.04,VWS V14.01,2013-01-04 04:30:00,
2013-01-03 20:35:00,35.2,30.9,29.68,SE,132,3.6,3.6,84,0.00,,---,0.04,VWS V14.01,2013-01-04 04:35:00,
2013-01-03 20:40:00,35.2,30.9,29.68,East,88,5.8,5.8,84,0.00,,---,0.04,VWS V14.01,2013-01-04 04:40:00,
2013-01-03 20:45:00,35.2,31.2,29.68,East,84,3.1,10.1,85,0.00,,---,0.04,VWS V14.01,2013-01-04 04:45:00,
2013-01-03 20:50:00,35.2,31.2,29.68,ENE,66,4.0,5.8,85,0.00,,---,0.04,VWS V14.01,2013-01-04 04:50:00,
2013-01-03 20:55:00,35.2,31.5,29.68,East,80,2.7,2.7,86,0.00,,---,0.04,VWS V14.01,2013-01-04 04:55:00,
2013-01-03 21:01:00,35.2,31.5,29.68,East,100,2.2,2.2,86,0.00,,---,0.04,VWS V14.01,2013-01-04 05:01:00,
2013-01-03 21:02:00,35.2,31.5,29.68,West,273,2.2,2.2,86,0.00,,---,0.04,VWS V14.01,2013-01-04 05:02:00,
2013-01-03 21:03:00,35.2,31.5,29.68,SSE,165,5.4,5.4,86,0.00,,---,0.04,VWS V14.01,2013-01-04 05:03:00,
2013-01-03 21:08:00,35.2,31.5,29.68,NNE,22,2.2,2.2,86,0.00,,---,0.04,VWS V14.01,2013-01-04 05:08:00,
2013-01-03 21:13:00,35.2,31.8,29.68,ESE,109,4.0,4.0,87,0.00,,---,0.04,VWS V14.01,2013-01-04 05:13:00,
2013-01-03 21:18:00,35.2,31.8,29.68,SE,136,2.7,2.7,87,0.00,,---,0.04,VWS V14.01,2013-01-04 05:18:00,
2013-01-03 21:23:00,35.2,31.8,29.68,ENE,74,3.1,3.1,87,0.00,,---,0.04,VWS V14.01,2013-01-04 05:23:00,
2013-01-03 21:28:00,35.2,31.8,29.68,SSW,196,4.9,4.9,87,0.00,,---,0.04,VWS V14.01,2013-01-04 05:28:00,
2013-01-03 21:33:00,35.2,32.0,29.68,SE,144,3.1,3.1,88,0.00,,---,0.04,VWS V14.01,2013-01-04 05:33:00,
2013-01-03 21:38:00,35.2,32.0,29.68,ESE,122,2.7,2.7,88,0.00,,---,0.04,VWS V14.01,2013-01-04 05:38:00,
2013-01-03 21:43:00,35.2,32.0,29.68,SSW,200,0.0,2.7,88,0.04,,---,0.08,VWS V14.01,2013-01-04 05:43:00,
2013-01-03 21:48:00,35.2,32.0,29.68,SSW,200,0.0,0.0,88,0.04,,---,0.08,VWS V14.01,2013-01-04 05:48:00,
2013-01-03 21:53:00,35.2,32.0,29.68,SSE,152,0.0,0.0,88,0.04,,---,0.08,VWS V14.01,2013-01-04 05:53:00,
2013-01-03 21:58:00,35.2,32.0,29.68,WSW,258,2.2,2.2,88,0.04,,---,0.08,VWS V14.01,2013-01-04 05:58:00,
2013-01-03 22:03:00,35.4,32.5,29.68,SE,142,2.7,2.7,89,0.04,,---,0.08,VWS V14.01,2013-01-04 06:03:00,
2013-01-03 22:08:00,35.4,32.5,29.68,NW,308,0.0,0.0,89,0.04,,---,0.08,VWS V14.01,2013-01-04 06:08:00,
2013-01-03 22:13:00,35.2,32.3,29.68,SSW,199,0.0,0.0,89,0.04,,---,0.08,VWS V14.01,2013-01-04 06:13:00,
2013-01-03 22:18:00,35.4,32.5,29.68,SSW,199,0.0,0.0,89,0.04,,---,0.08,VWS V14.01,2013-01-04 06:18:00,
2013-01-03 22:23:00,35.4,32.5,29.68,SSE,168,2.7,2.7,89,0.04,,---,0.08,VWS V14.01,2013-01-04 06:23:00,
2013-01-03 22:28:00,35.2,32.3,29.68,SW,231,2.7,2.7,89,0.04,,---,0.08,VWS V14.01,2013-01-04 06:28:00,
2013-01-03 22:33:00,35.2,32.3,29.68,NNW,345,0.0,0.0,89,0.04,,---,0.08,VWS V14.01,2013-01-04 06:33:00,
2013-01-03 22:38:00,35.2,32.6,29.68,West,272,2.2,2.2,90,0.04,,---,0.08,VWS V14.01,2013-01-04 06:38:00,
2013-01-03 22:43:00,35.2,32.6,29.71,WSW,248,0.0,0.0,90,0.00,,---,0.08,VWS V14.01,2013-01-04 06:43:00,
2013-01-03 22:48:00,35.2,32.6,29.71,WNW,297,0.0,0.0,90,0.00,,---,0.08,VWS V14.01,2013-01-04 06:48:00,
2013-01-03 22:53:00,35.1,32.7,29.71,North,4,0.0,0.0,91,0.00,,---,0.08,VWS V14.01,2013-01-04 06:53:00,
2013-01-03 22:58:00,35.2,32.9,29.71,SE,130,0.0,0.0,91,0.00,,---,0.08,VWS V14.01,2013-01-04 06:58:00,
2013-01-03 23:03:00,35.2,32.9,29.71,South,173,0.0,0.0,91,0.00,,---,0.08,VWS V14.01,2013-01-04 07:03:00,
2013-01-03 23:08:00,35.4,33.1,29.71,South,173,0.0,0.0,91,0.00,,---,0.08,VWS V14.01,2013-01-04 07:08:00,
2013-01-03 23:13:00,35.4,33.1,29.71,SW,224,0.0,0.0,91,0.04,,---,0.12,VWS V14.01,2013-01-04 07:13:00,
2013-01-03 23:18:00,35.4,33.3,29.71,SW,224,0.0,0.0,92,0.04,,---,0.12,VWS V14.01,2013-01-04 07:18:00,
2013-01-03 23:23:00,35.4,33.3,29.71,NW,320,0.0,0.0,92,0.04,,---,0.12,VWS V14.01,2013-01-04 07:23:00,
2013-01-03 23:28:00,35.4,33.3,29.71,NW,320,0.0,0.0,92,0.04,,---,0.12,VWS V14.01,2013-01-04 07:28:00,
2013-01-03 23:33:00,35.4,33.3,29.71,North,0,0.0,0.0,92,0.04,,---,0.12,VWS V14.01,2013-01-04 07:33:00,
2013-01-03 23:38:00,35.6,33.5,29.71,SSE,162,0.0,0.0,92,0.04,,---,0.12,VWS V14.01,2013-01-04 07:38:00,
2013-01-03 23:43:00,35.6,33.5,29.68,SW,232,0.0,0.0,92,0.04,,---,0.12,VWS V14.01,2013-01-04 07:43:00,
2013-01-03 23:48:00,35.6,33.5,29.68,SW,232,0.0,0.0,92,0.04,,---,0.12,VWS V14.01,2013-01-04 07:48:00,
2013-01-03 23:53:00,35.6,33.8,29.68,SW,232,0.0,0.0,93,0.04,,---,0.12,VWS V14.01,2013-01-04 07:53:00,
2013-01-03 23:58:00,35.6,33.8,29.68,SW,232,0.0,0.0,93,0.04,,---,0.12,VWS V14.01,2013-01-04 07:58:00,